軌道要素
Epoch 2015 May 18.0 TT = JDT 2457160.5
T 2015 May 1.60930 TT MPCW
q 5.8905670 (2000.0) P Q
z -0.0003298 Peri. 341.82638 -0.67450129 -0.26845920
+/-0.0000012 Node 223.56558 -0.49041315 -0.53339628
e 1.0019430 Incl. 93.71811 -0.55185410 +0.80213344
From 357 observations 2015 June 7-2018 Aug. 17, mean residual 0".6.
|